Regional Weather Roundup
Issued by NWS

Home | Current Version | Previous Version | Graphics & Text | Print | Product List | Glossary Off
Versions: 1 2 3 4 5 6 7 8 9 10 11 12 13 14 15 16 17 18 19 20 21 22 23 24 25 26 27 28 29 30 31 32 33 34 35 36 37 38 39 40 41 42 43 44 45 46 47 48 49 50

000
ASUS43 KLSX 251810
RWRMO

WEATHER SUMMARY FOR MISSOURI
NATIONAL WEATHER SERVICE SPRINGFIELD MO
100 PM CDT TUE JUL 25 2017

NOTE: "FAIR" INDICATES FEW OR NO CLOUDS BELOW 12,000 FEET WITH NO
       SIGNIFICANT WEATHER AND/OR OBSTRUCTIONS TO VISIBILITY.
       CURRENT SKY AND/OR WEATHER CONDITIONS ARE NOT AVAILABLE FOR
       CHILLICOTHE AND FARMINGTON.

MOZ001>031-035>038-043-044-053-054-251900-
...NORTHERN AND WESTERN MISSOURI...

CITY           SKY/WX    TMP DP  RH WIND       PRES   REMARKS
KANSAS CTY INT MOSUNNY   91  73  55 S9        30.07S HX  99
6HR MIN TEMP:  73; 6HR MAX TEMP:  91;

KANSAS C DTWN  SUNNY     92  74  55 S7        30.04F HX 101
6HR MIN TEMP:  75; 6HR MAX TEMP:  93;

LEE`S SUMMIT   SUNNY     89  74  60 S5        30.08S HX  98
6HR MIN TEMP:  72; 6HR MAX TEMP:  89;

ST JOSEPH      SUNNY     89  76  65 S9        30.05S HX 100
6HR MIN TEMP:  73; 6HR MAX TEMP:  90;

CHILLICOTHE      N/A     85  73  67 S6        30.10S HX  91
6HR MIN TEMP:  69; 6HR MAX TEMP:  85;

KIRKSVILLE     SUNNY     86  67  52 S6        30.12F
6HR MIN TEMP:  66; 6HR MAX TEMP:  86;


$$
MOZ066>068-077>081-088>096-101>105-251900-
...SOUTHWEST MISSOURI...

CITY           SKY/WX    TMP DP  RH WIND       PRES   REMARKS
SPRINGFIELD    MOSUNNY   92  70  48 VRB5      30.10S HX  97
6HR MIN TEMP:  71; 6HR MAX TEMP:  93;

JOPLIN         MOSUNNY   94  73  50 SW9       30.08F HX 103
6HR MIN TEMP:  74; 6HR MAX TEMP:  95;

BRANSON        MOSUNNY   91  68  46 SW6       30.12F HX  95

$$
MOZ032>034-039>042-045>050-055>058-069>072-251900-
...CENTRAL MISSOURI...

CITY           SKY/WX    TMP DP  RH WIND       PRES   REMARKS
COLUMBIA       SUNNY     88  69  53 VRB5      30.11R HX  92
6HR MIN TEMP:  69; 6HR MAX TEMP:  88;

JEFFERSON CITY SUNNY     88  72  58 S6        30.08S HX  94
6HR MIN TEMP:  70; 6HR MAX TEMP:  88;

ROLLA          SUNNY     90  69  50 MISG      30.11F HX  94
6HR MIN TEMP:  69; 6HR MAX TEMP:  90;

SEDALIA        SUNNY     90  72  55 MISG      30.11R HX  97
6HR MIN TEMP:  69; 6HR MAX TEMP:  91;

WHITEMAN AFB   SUNNY     89  75  62 VRB3      30.08R HX  99
WARRENSBURG    SUNNY     88  70  55 S3        30.08S HX  92
OSAGE BEACH    SUNNY     92  68  45 CALM      30.09F HX  96

$$
MOZ051-052-059>065-251900-
...EAST CENTRAL MISSOURI...

CITY           SKY/WX    TMP DP  RH WIND       PRES   REMARKS
ST LOUIS INTL  MOSUNNY   89  71  55 E7        30.10S HX  95
6HR MIN TEMP:  73; 6HR MAX TEMP:  89;

SPIRIT OF STL  PTSUNNY   90  72  55 NE7       30.08S HX  97
6HR MIN TEMP:  73; 6HR MAX TEMP:  90;

ST CHARLES     SUNNY     87  71  58 E8        30.09S HX  93
6HR MIN TEMP:  71; 6HR MAX TEMP:  88;


$$
MOZ072>076-082>087-097>100-106>115-251900-
...SOUTH CENTRAL AND SOUTHEAST MISSOURI...

CITY           SKY/WX    TMP DP  RH WIND       PRES   REMARKS
CAPE GIRARDEAU TSTM      81  77  88 E10       30.07R FOG
6HR MIN TEMP:  74; 6HR MAX TEMP:  89; 6HR PCP:  0.10;

FARMINGTON     MOSUNNY   90  74  59 E6        30.10F HX  99
6HR MIN TEMP:  73; 6HR MAX TEMP:  90;

POPLAR BLUFF   MOSUNNY   91  78  65 SW8       30.05F HX 106
6HR MIN TEMP:  77; 6HR MAX TEMP:  91;

WEST PLAINS    PTSUNNY   93  65  39 MISG      30.11S HX  95
6HR MIN TEMP:  72; 6HR MAX TEMP:  95;


$$




USA.gov is the U.S. government's official web portal to all federal, state and local government web resources and services.